sat.trackr.live / text

‹ back to catalog

STARLINK-4342

NORAD 53070 · 2022-077AD

PAYLOAD ACTIVE UNKNOWN

§ Identity

Operator
Country
US
Launch date
2022-07-11
Launch site
AFWTR
Launch vehicle
Mass (kg)
RCS (m²)

Purposes: comms

External: N2YO · Heavens-Above · Gunter

§ Orbital elements

Epoch: 2026-09-19T22:58:12.118080Z

Period
93.91 min
Inclination
97.2842°
Eccentricity
0.0001904
Mean motion
15.33450470 rev/d
Perigee alt
464.2 km
Apogee alt
466.8 km
Semi-major
6,843.7 km
B*
1.7382e-4
RAAN
78.6178°
Arg perigee
91.4171°
Mean anomaly
268.7290°
Rev number
23,026

§ Raw data

STARLINK-43421 53070U 22077AD  26262.95708470  .00005542  00000+0  17382-3 0  99902 53070  97.2842  78.6178 0001904  91.4171 268.7290 15.33450470230262

JSON: /api/v1/satellites/53070 · /tle

For live sub-satellite position, see the globe view (requires WebGL).

§ Visibility from observer

Set your observer location to see the next 7 days of passes ≥ 10°. The values pass through the URL so the page stays shareable.

No JS? Fill the form by hand. The geolocation button needs JavaScript.